User: anonymous   Login
Location: Unspecified
(0.0000°N, 0.0000°E)
Time: 00:04:40
(UTC+00:00)
Language:

AO-7 - Orbit

View from above orbital plane
View from above orbital plane
View from above satellite
View from above satellite

Ground track
Ground track

The orbit data is extracted from the following two-line orbital elements,

1  7530U 74089B   17172.93552212 -.00000039 +00000-0 +33643-4 0  9996
2  7530 101.6306 141.5263 0011808 315.1883 061.4715 12.53627455949223
Epoch (UTC): 21 June 2017 22:27:09
Eccentricity: 0.0011808
inclination: 101.6306°
perigee height: 1440 km
apogee height: 1458 km
right ascension of ascending node: 141.5263°
argument of perigee: 315.1883°
revolutions per day: 12.53627455
mean anomaly at epoch: 61.4715°
orbit number at epoch: 94922

The dashed part of the orbit path shows where the satellite is in the earth's shadow,  

DLR